Details From EPKK - Balice
To EDDB - Berlin Schoenefeld
Flight Number -
Tags Generated
Created
Modified
Stats Distance 273 nm / 505 km
Max Altitude 0 ft / 0 m
Waypoints 3
Social Downloads 2
Likes 0
Share VATSIM

Download

Looking for another format? Having issues loading an existing format? Contact us
Advertisement - Login to hide

Notes

Generated

Route

EPKK DB440 EDDB

ID Type Via Altitude Latitude Longitude Leg Dist Tot Dist Heading (true) Name
O EPKK APT - 0 ft / 0 m 50.07540˚ 19.76809˚ - 0 nm - -
DB440 FIX - 0 ft / 0 m 52.32847˚ 13.69666˚ 265 nm 265 nm 303° / 298° -
O EDDB APT - 0 ft / 0 m 52.38012˚ 13.51714˚ 7 nm 272 nm 295° / 295° Berlin Schoenefeld

Altitude Profile

Weather

Temperature
Clouds and Precipitation
Forecast for 2017-01-18 06:00 UTC. Updated 4 minutes ago
Winds

EPKK

Details ICAO EPKK (KRK)
Name BALICE
Region Poland
Timezone Europe/Warsaw (UTC+1.0)
Stats Elevation 791 ft / 241 m (AMSL)
Location 50.077821° 19.785503°
Runways 1
Magnetic Variation 5.091° E

METAR

EPKK 180100Z 05010KT 5000 BR OVC005 M06/M07 Q1036

Decode

TAF

TAF EPKK 172330Z 1800/1824 08009KT 7000 OVC005 TEMPO 1800/1807 2500 BR OVC003 BECMG 1807/1809 SCT008 BKN017 TEMPO 1809/1824 BKN007

Decode

Departure Runways

ID Width Length Bearing (true) Bearing (mag) Surface Threshold Offset Overrun Length
07 197 ft / 60 m 8,343 ft / 2,543 m 77.75° 72.66° Concrete 0 ft / 0 m 0 ft / 0 m
25 197 ft / 60 m 8,343 ft / 2,543 m 257.77° 252.68° Concrete 784 ft / 239 m 0 ft / 0 m

EDDB

Details ICAO EDDB (BER)
Name Berlin Schoenefeld
Region Germany - Civil
Timezone Europe/Berlin (UTC+1.0)
Stats Elevation 157 ft / 48 m (AMSL)
Location 52.378541° 13.520629°
Runways 2
Magnetic Variation 3.686° E

METAR

EDDB 180120Z 24003KT 210V270 7000 BKN002 M07/M08 Q1040 R25/19//95 TEMPO 2000 BR

Decode

TAF

TAF AMD EDDB 180104Z 1801/1824 VRB03KT 9999 FEW003 TEMPO 1801/1805 2000 BR BKN002 BECMG 1805/1808 3000 BR OVC004 PROB30 TEMPO 1806/1810 0200 FZFG OVC001 BECMG 1810/1812 6000 BKN008 BECMG 1817/1819 SCT010

Decode

Destination Runways

ID Width Length Bearing (true) Bearing (mag) Surface Threshold Offset Overrun Length
07 148 ft / 45 m 9,817 ft / 2,992 m 68.75° 65.06° Asphalt 0 ft / 0 m 984 ft / 300 m
07L 148 ft / 45 m 8,867 ft / 2,703 m 68.77° 65.08° Concrete 0 ft / 0 m 525 ft / 160 m
25 148 ft / 45 m 9,817 ft / 2,992 m 248.78° 245.09° Asphalt 0 ft / 0 m 984 ft / 300 m
25R 148 ft / 45 m 8,867 ft / 2,703 m 248.80° 245.11° Concrete 0 ft / 0 m 984 ft / 300 m

Approach Navaids

Runway Type Ident Frequency Range Bearing (true) Bearing (mag) Slope Elevation
07 Localiser ISSE 110.70 MHz 18 nm / 33 km 68.79° 65.10° - 157 ft / 48 m (AMSL)
07 Glidescope ISSE 110.70 MHz 10 nm / 19 km 68.77° 65.08° 3.00° 157 ft / 48 m (AMSL)
25 Localiser ISSW 109.90 MHz 18 nm / 33 km 248.75° 245.06° - 157 ft / 48 m (AMSL)
25 Glidescope ISSW 109.90 MHz 10 nm / 19 km 248.77° 245.08° 3.00° 157 ft / 48 m (AMSL)

Popular Alternatives